When you browse on this site, cookies collect data to enhance your experience and personalize the content and advertising you see.
Visit our Privacy Policy to learn more. By continuing to use the site, you agree to this use of cookies and data.
  • In Denmark
  • List of Countries
  • For 7 days
  • Water Temperature
  • Satellite Maps
  • Weather Map
  • Weather Widgets
  • user-avatar
    Login

    Hourly Weather Edinburgh

    Today, 12 December, Wednesday

    Time Temperature Precipitation Wind Pressure Humidity
    00:00 +6°C° 0.4 mm 4 mps 761 mmHg 93%
    01:00 +6°C° 0.2 mm 4 mps 761 mmHg 93%
    02:00 +6°C° 0.2 mm 4 mps 761 mmHg 93%
    03:00 +6°C° 0.2 mm 4 mps 760 mmHg 93%
    04:00 +6°C° 0.1 mm 4 mps 760 mmHg 93%
    05:00 +6°C° 0.1 mm 4 mps 760 mmHg 92%
    06:00 +5°C° 0.1 mm 4 mps 760 mmHg 92%
    07:00 +5°C° 0 mm 4 mps 760 mmHg 92%
    08:00 +5°C° 0 mm 4 mps 760 mmHg 92%
    09:00 +5°C° 0 mm 4 mps 760 mmHg 92%
    10:00 +5°C° 0 mm 5 mps 760 mmHg 90%
    11:00 +5°C° 0 mm 5 mps 760 mmHg 88%
    12:00 +5°C° 0 mm 6 mps 760 mmHg 86%
    13:00 +5°C° 0.1 mm 6 mps 760 mmHg 86%
    14:00 +5°C° 0.1 mm 6 mps 759 mmHg 86%
    15:00 +5°C° 0.1 mm 6 mps 759 mmHg 86%
    16:00 +4°C° 0.1 mm 6 mps 759 mmHg 86%
    17:00 +4°C° 0.1 mm 6 mps 758 mmHg 86%
    18:00 +4°C° 0.1 mm 6 mps 758 mmHg 86%
    19:00 +4°C° 0.1 mm 7 mps 758 mmHg 85%
    20:00 +4°C° 0.1 mm 7 mps 758 mmHg 85%
    21:00 +4°C° 0.1 mm 8 mps 758 mmHg 84%
    22:00 +4°C° 0.1 mm 8 mps 757 mmHg 83%
    23:00 +2°C° 0.1 mm 8 mps 757 mmHg 81%

    Tomorrow, 13 December, Thursday

    Time Temperature Precipitation Wind Pressure Humidity
    00:00 +2°C° 0.1 mm 8 mps 757 mmHg 80%
    01:00 +2°C° 0 mm 8 mps 757 mmHg 77%
    02:00 +1°C° 0 mm 8 mps 757 mmHg 75%
    03:00 +1°C° 0 mm 8 mps 757 mmHg 73%
    04:00 +1°C° 0 mm 8 mps 757 mmHg 73%
    05:00 +1°C° 0 mm 8 mps 757 mmHg 73%
    06:00 +1°C° 0 mm 8 mps 757 mmHg 74%
    07:00 +1°C° 0 mm 8 mps 757 mmHg 75%
    08:00 +1°C° 0 mm 8 mps 757 mmHg 76%
    09:00 +1°C° 0 mm 8 mps 757 mmHg 78%
    10:00 +1°C° 0 mm 8 mps 758 mmHg 76%
    11:00 +1°C° 0 mm 8 mps 758 mmHg 74%
    12:00 +1°C° 0 mm 8 mps 758 mmHg 72%
    13:00 +2°C° 0 mm 7 mps 758 mmHg 72%
    14:00 +2°C° 0 mm 7 mps 759 mmHg 73%
    15:00 +2°C° 0 mm 6 mps 759 mmHg 73%
    16:00 +2°C° 0 mm 6 mps 759 mmHg 75%
    17:00 +1°C° 0 mm 6 mps 760 mmHg 76%
    18:00 +1°C° 0 mm 6 mps 760 mmHg 78%
    19:00 +1°C° 0 mm 6 mps 761 mmHg 78%
    20:00 +1°C° 0 mm 6 mps 761 mmHg 79%
    21:00 +1°C° 0 mm 6 mps 761 mmHg 79%
    22:00 0°C° 0 mm 5 mps 761 mmHg 79%
    23:00 0°C° 0 mm 5 mps 762 mmHg 79%

    Day after tomorrow, 14 December, Friday

    Time Temperature Precipitation Wind Pressure Humidity
    00:00 0°C° 0 mm 5 mps 762 mmHg 79%
    01:00 0°C° 0 mm 5 mps 762 mmHg 79%
    02:00 0°C° 0 mm 5 mps 762 mmHg 80%
    03:00 -1°C° 0 mm 4 mps 762 mmHg 80%
    04:00 -1°C° 0 mm 5 mps 762 mmHg 80%
    05:00 -1°C° 0 mm 5 mps 761 mmHg 80%
    06:00 -1°C° 0 mm 5 mps 761 mmHg 80%
    07:00 -1°C° 0 mm 5 mps 761 mmHg 80%
    08:00 -1°C° 0 mm 5 mps 761 mmHg 80%
    09:00 0°C° 0 mm 5 mps 761 mmHg 80%
    10:00 -1°C° 0 mm 6 mps 761 mmHg 77%
    11:00 +1°C° 0 mm 6 mps 761 mmHg 74%
    12:00 0°C° 0 mm 7 mps 761 mmHg 70%
    13:00 0°C° 0 mm 7 mps 760 mmHg 70%
    14:00 0°C° 0 mm 7 mps 760 mmHg 70%
    15:00 0°C° 0 mm 7 mps 759 mmHg 69%
    16:00 0°C° 0 mm 7 mps 759 mmHg 70%
    17:00 0°C° 0 mm 7 mps 758 mmHg 71%
    18:00 0°C° 0 mm 7 mps 758 mmHg 72%
    19:00 0°C° 0.3 mm 7 mps 757 mmHg 75%
    20:00 0°C° 0.3 mm 7 mps 757 mmHg 77%
    21:00 0°C° 0.3 mm 7 mps 757 mmHg 79%
    22:00 0°C° 1.2 mm 7 mps 756 mmHg 82%
    23:00 0°C° 1.2 mm 7 mps 756 mmHg 85%

    15 December, Saturday

    Time Temperature Precipitation Wind Pressure Humidity
    00:00 0°C° 1.2 mm 7 mps 756 mmHg 88%
    01:00 0°C° 0.9 mm 7 mps 756 mmHg 89%
    02:00 +2°C° 0.9 mm 7 mps 755 mmHg 89%
    03:00 +2°C° 0.9 mm 7 mps 755 mmHg 90%
    04:00 +2°C° 0.7 mm 6 mps 755 mmHg 90%
    05:00 +2°C° 0.7 mm 6 mps 755 mmHg 91%
    06:00 +2°C° 0.7 mm 5 mps 754 mmHg 91%
    07:00 +2°C° 0.4 mm 5 mps 754 mmHg 91%
    08:00 +2°C° 0.4 mm 5 mps 754 mmHg 91%
    09:00 +2°C° 0.4 mm 5 mps 754 mmHg 92%
    10:00 +2°C° 0.3 mm 5 mps 753 mmHg 91%
    11:00 +2°C° 0.3 mm 5 mps 753 mmHg 91%
    12:00 +2°C° 0.3 mm 5 mps 752 mmHg 91%
    13:00 +2°C° 2.7 mm 5 mps 751 mmHg 92%
    14:00 +2°C° 2.7 mm 5 mps 749 mmHg 93%
    15:00 +1°C° 2.7 mm 5 mps 748 mmHg 93%
    16:00 +2°C° 3.8 mm 5 mps 746 mmHg 94%
    17:00 +2°C° 3.8 mm 5 mps 745 mmHg 94%
    18:00 +2°C° 3.8 mm 5 mps 744 mmHg 95%
    19:00 +3°C° 0.7 mm 5 mps 743 mmHg 95%
    20:00 +4°C° 0.7 mm 4 mps 743 mmHg 96%
    21:00 +4°C° 0.7 mm 3 mps 742 mmHg 96%
    22:00 +3°C° 0 mm 3 mps 742 mmHg 95%
    23:00 +2°C° 0 mm 3 mps 743 mmHg 95%

    16 December, Sunday

    Time Temperature Precipitation Wind Pressure Humidity
    00:00 +2°C° 0 mm 3 mps 743 mmHg 94%
    01:00 +2°C° 0 mm 3 mps 743 mmHg 94%
    02:00 +3°C° 0 mm 4 mps 743 mmHg 94%
    03:00 +3°C° 0 mm 4 mps 743 mmHg 95%
    04:00 +3°C° 0 mm 4 mps 744 mmHg 93%
    05:00 +3°C° 0 mm 5 mps 744 mmHg 92%
    06:00 +3°C° 0 mm 5 mps 745 mmHg 90%
    07:00 +3°C° 0 mm 5 mps 746 mmHg 90%
    08:00 +2°C° 0 mm 5 mps 746 mmHg 89%
    09:00 +3°C° 0 mm 4 mps 747 mmHg 89%
    10:00 +3°C° 0 mm 4 mps 748 mmHg 89%
    11:00 +4°C° 0 mm 4 mps 748 mmHg 89%
    12:00 +4°C° 0 mm 4 mps 749 mmHg 89%
    13:00 +4°C° 0 mm 4 mps 749 mmHg 90%
    14:00 +4°C° 0 mm 4 mps 749 mmHg 90%
    15:00 +4°C° 0 mm 4 mps 749 mmHg 90%
    16:00 +4°C° 0 mm 4 mps 749 mmHg 91%
    17:00 +3°C° 0 mm 4 mps 749 mmHg 92%
    18:00 +3°C° 0 mm 4 mps 749 mmHg 92%
    19:00 +3°C° 0 mm 4 mps 749 mmHg 93%
    20:00 +3°C° 0 mm 3 mps 750 mmHg 93%
    21:00 +3°C° 0 mm 3 mps 750 mmHg 93%
    22:00 +3°C° 0 mm 3 mps 750 mmHg 93%
    23:00 +2°C° 0 mm 3 mps 750 mmHg 94%

    17 December, Monday

    Time Temperature Precipitation Wind Pressure Humidity
    00:00 +3°C° 0 mm 2 mps 750 mmHg 94%
    01:00 +3°C° 0 mm 2 mps 750 mmHg 94%
    02:00 +3°C° 0 mm 2 mps 750 mmHg 94%
    03:00 +3°C° 0 mm 2 mps 750 mmHg 94%
    04:00 +4°C° 0 mm 1 mps 750 mmHg 95%
    05:00 +4°C° 0 mm 1 mps 750 mmHg 95%
    06:00 +4°C° 0 mm 1 mps 750 mmHg 95%
    07:00 +4°C° 0 mm 1 mps 750 mmHg 95%
    08:00 +3°C° 0 mm 1 mps 751 mmHg 95%
    09:00 +3°C° 0 mm 1 mps 751 mmHg 95%
    10:00 +4°C° 0 mm 1 mps 751 mmHg 94%
    11:00 +4°C° 0 mm 1 mps 751 mmHg 94%
    12:00 +5°C° 0 mm 1 mps 751 mmHg 93%
    13:00 +4°C° 0 mm 1 mps 751 mmHg 93%
    14:00 +4°C° 0 mm 1 mps 750 mmHg 93%
    15:00 +3°C° 0 mm 1 mps 750 mmHg 94%
    16:00 +3°C° 0 mm 1 mps 750 mmHg 93%
    17:00 +2°C° 0 mm 1 mps 750 mmHg 93%
    18:00 +2°C° 0 mm 1 mps 751 mmHg 93%
    19:00 +2°C° 0 mm 1 mps 750 mmHg 93%
    20:00 +1°C° 0 mm 2 mps 750 mmHg 93%
    21:00 +1°C° 0 mm 2 mps 750 mmHg 93%
    22:00 0°C° 0 mm 3 mps 749 mmHg 93%
    23:00 0°C° 0 mm 3 mps 748 mmHg 94%
    Show more